Regional Weather Roundup
Issued by NWS Northern Indiana

Home | Current Version | Previous Version | Text Only | Print | Product List | Glossary Off
Versions: 1 2 3 4 5 6 7 8 9 10 11 12 13 14 15 16 17 18 19 20 21 22 23 24 25 26 27 28 29 30 31 32 33 34 35 36 37 38 39 40 41 42 43 44 45 46 47 48 49 50

570
ASUS43 KIWX 241900
RWRIWX

KIWX WEATHER ROUNDUP
NATIONAL WEATHER SERVICE NORTHERN INDIANA
300 PM EDT SUN JUL 24 2016

NOTE: "FAIR" INDICATES FEW OR NO CLOUDS BELOW 12,000 FEET WITH NO
SIGNIFICANT WEATHER AND/OR OBSTRUCTIONS TO VISIBILITY.

* THESE STATIONS ARE NOT UNDER NWS QUALITY CONTROL. THEY ALSO MAY NOT
  REPORT WEATHER SUCH AS PRECIPITATION OR FOG.

INZ001>027-242000-
NORTHERN INDIANA

CITY           SKY/WX    TMP DP  RH WIND       PRES   REMARKS
GARY*          PTSUNNY   90 N/A N/A S14       29.91F
VALPARAISO     CLOUDY    88  76  67 S14       29.94F HX  99
KNOX*          MOSUNNY   86  68  54 SW10      29.94F
SOUTH BEND     CLOUDY    89  76  65 SW16      29.94F HX 100
ELKHART*       PTSUNNY   86  81  84 S12       29.95F HX 102
GOSHEN         CLOUDY    89  73  59 S12       29.95F HX  97
MONTICELLO*    PTSUNNY   91  72  53 S14       29.95S HX  98
ANGOLA*          N/A     82  77  83 S9        29.98F
FORT WAYNE     PTSUNNY   89  73  59 W10       29.98F HX  97
PERU/GRISSOM   CLOUDY    91  76  62 SW15      29.96F HX 102

$$
INZ028>050-242000-
CENTRAL INDIANA

CITY           SKY/WX    TMP DP  RH WIND       PRES   REMARKS
LAFAYETTE      MOSUNNY   90  77  65 SW12      29.95F HX 103
KOKOMO*        PTSUNNY   91  75  59 S13       29.97F HX 102
MUNCIE*        PTSUNNY   91  73  55 SW10G20   30.00F HX  99
INDIANAPOLIS   MOSUNNY   91  75  59 SW8       29.99F HX 101

$$
MIZ043>046-050>051-056>058-064>065-071>073-077>080-242000-
SOUTHWEST LOWER MICHIGAN

CITY           SKY/WX    TMP DP  RH WIND       PRES   REMARKS
BATTLE CREEK   CLOUDY    72  72 100 S7        29.95F
BENTON HARBOR  CLOUDY    85  75  72 SE8G21    29.90F
COLDWATER*     CLOUDY    79  73  82 S3        29.95F
HOLLAND        CLOUDY    84  74  71 S14       29.90F
GRAND RAPIDS   PTSUNNY   82  72  71 S13       29.91F
KALAMAZOO      CLOUDY    82  74  76 S7        29.93F
STURGIS*       SUNNY     83  74  74 S10G18    29.95F
THREE RIVERS*  FAIR      83  73  71 S13       29.94F

$$
OHZ001>008-015>018-024>025-242000-
NORTHWEST OHIO

CITY           SKY/WX    TMP DP  RH WIND       PRES   REMARKS
DEFIANCE       PTSUNNY   83  70  64 VRB7      29.98F
FINDLAY        CLOUDY    84  66  54 NE15      30.01F
TOLEDO EXPRESS LGT RAIN  72  72 100 SW6       29.95F
TOLEDO METCALF LGT RAIN  72  71  97 S10       29.97F
LIMA           CLOUDY    81  70  69 NE13      30.02F

$$
AND FOR LAKE MICHIGAN COASTAL AND OPEN LAKE BUOY OBSERVATIONS

STATION/POSITION TEMP    WIND        PRES    VSBY  WAVE
                 AIR SEA DIR/SP/G                  HT/PER
                 (F)     (DEG/KT/KT) (MB)    (MI)  (FT/S)
CALUMET HARBOR    88     180/ 10/ 15 1011.9F
MICHIGAN CITY     86     170/ 13/ 16   N/A
BURNS HARBOR      87     190/ 16/ 18 1013.5S
SAINT JOSEPH      82     190/  3/  6 1013.9F
SOUTH LAKE BUOY   74 72  150/ 19/ 23 1010.8          3/ 5
4 MI NW BRIDGMAN  78 74  120/  8/ 12 1013.0F         2/ 3
MICHIGAN CITY     82 74  190/ 10/ 14   N/A           1/ 3

$$
&&




USA.gov is the U.S. government's official web portal to all federal, state and local government web resources and services.